sat.trackr.live / text

‹ back to catalog

STARLINK-11718 [DTC]

NORAD 64132 · 2025-111K

PAYLOAD ACTIVE UNKNOWN

§ Identity

Operator
Country
US
Launch date
2025-05-24
Launch site
AFETR
Launch vehicle
Mass (kg)
RCS (m²)

Purposes: comms

External: N2YO · Heavens-Above · Gunter

§ Orbital elements

Epoch: 2026-05-24T17:22:44.789664Z

Period
91.67 min
Inclination
43.0033°
Eccentricity
0.0004413
Mean motion
15.70930667 rev/d
Perigee alt
353.3 km
Apogee alt
359.2 km
Semi-major
6,734.4 km
B*
1.1306e-3
RAAN
235.8699°
Arg perigee
274.8661°
Mean anomaly
85.1703°
Rev number
5,864

§ Raw data

STARLINK-11718 [DTC]1 64132U 25111K   26144.72412951  .00147849  00000+0  11306-2 0  99992 64132  43.0033 235.8699 0004413 274.8661  85.1703 15.70930667 58640

JSON: /api/v1/satellites/64132 · /tle

For live sub-satellite position, see the globe view (requires WebGL).

§ Visibility from observer

Set your observer location to see the next 7 days of passes ≥ 10°. The values pass through the URL so the page stays shareable.

No JS? Fill the form by hand. The geolocation button needs JavaScript.